Weather History for Jefferson City, MO

Change the Weather History Date:

Sunday, March 17, 2013

  Actual Average Record
Temperature  
Mean Temperature 36 °F -  
Max Temperature 39 °F 56 °F 82 °F (1966)
Min Temperature 33 °F 31 °F 12 °F (1941)
Degree Days  
Heating Degree Days 29    
Moisture  
Dew Point 31 °F    
Average Humidity 82    
Maximum Humidity 87    
Minimum Humidity 73    
Precipitation  
Precipitation 0.40 in - - ()
Sea Level Pressure  
Sea Level Pressure 29.96 in    
Wind  
Wind Speed 8 mph (ENE)    
Max Wind Speed 15 mph    
Max Gust Speed 21 mph    
Visibility 7 miles    
Events Rain , Snow    
Averages and records for this station are not official NWS values.
T = Trace of Precipitation, MM = Missing Value Source: NWS Daily Summary

Daily Weather History Graph

Daily Weather History Graph

Search for Another Location

Airport:

Trip Planner

Search our weather history database for the weather conditions in past years. The results will help you decide how hot, cold, wet, or windy it might be!

Date:

Astronomy

Mar. 17, 2013 Rise Set
Actual Time 7:16 AM CDT 7:17 PM CDT
Civil Twilight 6:49 AM CDT 7:44 PM CDT
Nautical Twilight 6:19 AM CDT 8:15 PM CDT
Astronomical Twilight 5:47 AM CDT 8:46 PM CDT
Moon 10:33 AM CDT (3/17) 12:22 AM CDT (3/17)
Length of Visible Light 12h 54m
Length of Day
12h 01m
Waxing Crescent, 31% of the Moon is Illuminated
Mar 17
Waxing Crescent
Mar 19
First Quarter
Mar 27
Full
Apr 2
Last Quarter
Apr 10
New

Hourly Weather History & Observations

Time (CDT) Temp. Windchill Dew Point Humidity Pressure Visibility Wind Dir Wind Speed Gust Speed Precip Events Conditions
12:53 AM 39.0 °F 34.8 °F 32.0 °F 76% 30.05 in 10.0 mi Variable 5.8 mph - N/A   Overcast
1:30 AM 37.4 °F 32.1 °F 32.0 °F 81% 30.06 in 6.0 mi Variable 6.9 mph - 0.03 in Rain Light Rain
1:53 AM 37.9 °F 32.7 °F 32.0 °F 79% 30.04 in 9.0 mi NE 6.9 mph - 0.03 in   Overcast
2:53 AM 37.9 °F 34.4 °F 32.0 °F 79% 30.04 in 7.0 mi Variable 4.6 mph - 0.01 in Rain Light Rain
3:36 AM 37.4 °F 31.4 °F 32.0 °F 81% 30.04 in 8.0 mi NE 8.1 mph - 0.00 in   Overcast
3:53 AM 37.9 °F 32.1 °F 32.0 °F 79% 30.02 in 8.0 mi ENE 8.1 mph - 0.00 in   Overcast
4:11 AM 37.4 °F 32.8 °F 32.0 °F 81% 30.04 in 9.0 mi ENE 5.8 mph - N/A   Overcast
5:03 AM 37.4 °F 34.9 °F 30.2 °F 75% 30.07 in 6.0 mi Variable 3.5 mph - 0.00 in Rain Light Rain
5:53 AM 36.0 °F 30.3 °F 30.9 °F 82% 30.04 in 8.0 mi East 6.9 mph - 0.02 in   Overcast
6:24 AM 35.6 °F 30.7 °F 30.2 °F 81% 30.05 in 9.0 mi ENE 5.8 mph - N/A   Overcast
6:53 AM 36.0 °F 29.6 °F 30.0 °F 79% 30.05 in 10.0 mi East 8.1 mph - N/A   Overcast
7:53 AM 35.1 °F 25.5 °F 28.9 °F 78% 30.04 in 2.5 mi East 15.0 mph - 0.00 in Snow Light Snow
8:09 AM 33.8 °F 25.8 °F 30.2 °F 87% 30.05 in 3.0 mi East 10.4 mph - 0.00 in Snow Light Snow
8:53 AM 35.1 °F 27.4 °F 30.0 °F 82% 30.03 in 8.0 mi East 10.4 mph - 0.02 in   Overcast
9:23 AM 35.6 °F 29.9 °F 30.2 °F 81% 30.06 in 10.0 mi East 6.9 mph - N/A   Overcast
9:53 AM 35.1 °F 28.6 °F 30.0 °F 82% 30.03 in 9.0 mi East 8.1 mph 17.3 mph N/A   Overcast
10:02 AM 35.6 °F 28.0 °F 30.2 °F 81% 30.04 in 10.0 mi ENE 10.4 mph 18.4 mph N/A   Overcast
10:53 AM 36.0 °F 27.5 °F 28.0 °F 73% 30.04 in 10.0 mi East 12.7 mph 18.4 mph N/A   Overcast
11:53 AM 37.0 °F 29.8 °F 28.9 °F 73% 30.01 in 10.0 mi East 10.4 mph - N/A   Overcast
12:53 PM 37.0 °F 29.8 °F 28.9 °F 73% 29.98 in 9.0 mi ENE 10.4 mph - 0.01 in Rain Light Rain
1:53 PM 36.0 °F 28.0 °F 30.0 °F 79% 29.96 in 4.0 mi East 11.5 mph - 0.02 in Rain Light Rain
2:53 PM 36.0 °F 28.0 °F 30.9 °F 82% 29.92 in 6.0 mi ENE 11.5 mph - 0.01 in   Overcast
3:29 PM 35.6 °F 27.5 °F 30.2 °F 81% 29.91 in 4.0 mi East 11.5 mph - 0.03 in Rain Light Rain
3:39 PM 35.6 °F 29.9 °F 32.0 °F 87% 29.91 in 2.0 mi East 6.9 mph - 0.06 in Rain Rain
3:51 PM 35.6 °F 29.2 °F 32.0 °F 87% 29.89 in 4.0 mi ENE 8.1 mph - 0.07 in Rain Light Rain
3:53 PM 36.0 °F 29.0 °F 32.0 °F 86% 29.87 in 4.0 mi ENE 9.2 mph - 0.08 in Rain Light Rain
4:53 PM 37.0 °F 31.0 °F 33.1 °F 86% 29.87 in 5.0 mi East 8.1 mph - 0.03 in Rain Light Rain
4:58 PM 37.4 °F 29.8 °F 33.8 °F 87% 29.87 in 5.0 mi East 11.5 mph - 0.00 in Rain Light Rain
5:13 PM 37.4 °F 29.3 °F 33.8 °F 87% 29.85 in 4.0 mi ENE 12.7 mph 19.6 mph 0.01 in Rain Light Rain
5:53 PM 36.0 °F 27.5 °F 32.0 °F 86% 29.83 in 3.0 mi East 12.7 mph 20.7 mph 0.04 in Rain Rain
6:53 PM 36.0 °F 27.5 °F 32.0 °F 86% 29.80 in 7.0 mi ENE 12.7 mph 18.4 mph 0.09 in Rain Light Rain
7:53 PM 36.0 °F 29.0 °F 32.0 °F 86% 29.82 in 10.0 mi East 9.2 mph - 0.00 in   Overcast
8:53 PM 36.0 °F 30.3 °F 32.0 °F 86% 29.82 in 10.0 mi East 6.9 mph - N/A   Overcast
9:53 PM 36.0 °F 28.0 °F 32.0 °F 86% 29.79 in 7.0 mi ENE 11.5 mph - 0.01 in Rain Light Rain
10:53 PM 36.0 °F 29.0 °F 32.0 °F 86% 29.78 in 10.0 mi ENE 9.2 mph - 0.02 in   Overcast
11:53 PM 36.0 °F 29.6 °F 32.0 °F 86% 29.75 in 6.0 mi East 8.1 mph - 0.01 in   Overcast